TimeEDT,TemperatureF,Dew PointF,Humidity,Sea Level PressureIn,VisibilityMPH,Wind Direction,Wind SpeedMPH,Gust SpeedMPH,PrecipitationIn,Events,Conditions,WindDirDegrees,DateUTC
12:54 AM,57.0,55.0,93,30.07,0.8,ENE,6.9,-,N/A,,Mist,60,2013-05-07 04:54:00
1:46 AM,57.2,55.4,94,30.05,1.5,ENE,8.1,-,0.00,,Overcast,60,2013-05-07 05:46:00
1:51 AM,57.2,55.4,94,30.05,3.0,ENE,8.1,-,0.00,,Overcast,60,2013-05-07 05:51:00
1:54 AM,57.9,55.0,90,30.05,5.0,ENE,8.1,-,0.00,,Overcast,60,2013-05-07 05:54:00
2:38 AM,57.2,55.4,94,30.02,1.8,ENE,9.2,-,N/A,,Overcast,60,2013-05-07 06:38:00
2:54 AM,59.0,55.9,90,30.03,1.5,ENE,10.4,-,N/A,,Overcast,60,2013-05-07 06:54:00
3:54 AM,59.0,57.0,93,30.02,2.0,ENE,9.2,-,N/A,,Overcast,60,2013-05-07 07:54:00
4:25 AM,59.0,57.2,94,30.01,1.2,ENE,9.2,-,N/A,,Overcast,60,2013-05-07 08:25:00
4:43 AM,59.0,57.2,94,30.01,0.8,ENE,12.7,-,N/A,,Mist,60,2013-05-07 08:43:00
4:54 AM,59.0,57.0,93,30.02,0.8,ENE,10.4,-,N/A,,Mist,60,2013-05-07 08:54:00
5:16 AM,60.8,57.2,88,30.01,1.0,ENE,11.5,-,N/A,,Mist,60,2013-05-07 09:16:00
5:54 AM,60.1,57.0,90,30.02,1.5,ENE,9.2,-,0.03,Rain,Rain,70,2013-05-07 09:54:00
6:04 AM,60.8,57.2,88,30.02,2.5,East,10.4,-,0.03,Rain,Rain,90,2013-05-07 10:04:00
6:12 AM,60.8,57.2,88,30.01,2.0,ENE,8.1,-,0.20,Rain,Heavy Rain,60,2013-05-07 10:12:00
6:24 AM,60.8,57.2,88,30.01,8.0,NE,10.4,-,0.21,Rain,Light Rain,50,2013-05-07 10:24:00
6:44 AM,60.8,57.2,88,30.01,10.0,NE,11.5,-,0.21,Rain,Light Rain,50,2013-05-07 10:44:00
6:54 AM,60.1,57.0,90,30.02,10.0,NE,11.5,-,0.21,,Overcast,50,2013-05-07 10:54:00
7:54 AM,61.0,57.9,90,30.02,5.0,ENE,11.5,-,0.04,Rain,Light Rain,70,2013-05-07 11:54:00
8:27 AM,62.6,57.2,82,30.03,8.0,East,8.1,-,0.02,Rain,Light Rain,80,2013-05-07 12:27:00
8:31 AM,60.8,57.2,88,30.02,1.5,ENE,11.5,-,0.13,Rain,Rain,70,2013-05-07 12:31:00
8:41 AM,62.6,59.0,88,30.02,3.0,ENE,9.2,-,0.15,Rain,Light Rain,60,2013-05-07 12:41:00
8:54 AM,62.1,59.0,90,30.03,10.0,ENE,8.1,-,0.15,,Overcast,60,2013-05-07 12:54:00
9:27 AM,62.6,60.8,94,30.02,2.0,ENE,6.9,-,0.15,Rain,Heavy Rain,70,2013-05-07 13:27:00
9:45 AM,62.6,60.8,94,30.02,3.0,ENE,6.9,-,0.18,Rain,Light Rain,70,2013-05-07 13:45:00
9:54 AM,64.0,60.1,87,30.03,3.0,East,5.8,-,0.19,,Overcast,80,2013-05-07 13:54:00
10:16 AM,64.4,60.8,88,30.03,2.5,East,10.4,-,0.05,Rain,Rain,100,2013-05-07 14:16:00
10:24 AM,64.4,60.8,88,30.03,5.0,East,11.5,-,0.06,Rain,Light Rain,90,2013-05-07 14:24:00
10:31 AM,64.4,60.8,88,30.03,2.5,East,12.7,-,0.06,,Overcast,90,2013-05-07 14:31:00
10:54 AM,64.9,61.0,87,30.03,2.5,East,10.4,-,0.07,Rain,Light Rain,90,2013-05-07 14:54:00
11:12 AM,64.4,60.8,88,30.02,2.0,ENE,11.5,-,0.07,Rain,Light Rain,70,2013-05-07 15:12:00
11:54 AM,66.0,62.1,87,30.02,2.0,East,10.4,-,0.09,Rain,Light Rain,80,2013-05-07 15:54:00
11:59 AM,66.2,62.6,88,30.01,9.0,ENE,11.5,-,0.00,Rain,Light Rain,70,2013-05-07 15:59:00
12:54 PM,66.9,62.1,84,30.02,10.0,East,9.2,-,0.00,,Overcast,80,2013-05-07 16:54:00
1:43 PM,66.2,60.8,83,30.00,10.0,East,10.4,-,N/A,,Overcast,80,2013-05-07 17:43:00
2:11 PM,66.2,60.8,83,29.99,4.0,East,10.4,-,0.03,Rain,Light Rain,80,2013-05-07 18:11:00
2:19 PM,64.4,60.8,88,29.99,2.5,East,12.7,19.6,0.05,Rain,Light Rain,80,2013-05-07 18:19:00
2:23 PM,66.2,60.8,83,29.99,5.0,East,10.4,19.6,0.05,Rain,Light Rain,80,2013-05-07 18:23:00
2:45 PM,66.2,60.8,83,29.98,10.0,East,10.4,-,0.07,Rain,Light Rain,80,2013-05-07 18:45:00
2:54 PM,66.0,61.0,84,29.99,10.0,East,10.4,-,0.07,,Overcast,80,2013-05-07 18:54:00
3:45 PM,66.2,60.8,83,29.96,10.0,East,15.0,21.9,0.00,Rain,Light Rain,100,2013-05-07 19:45:00
3:54 PM,66.0,60.1,81,29.96,10.0,East,11.5,21.9,0.00,Rain,Light Rain,90,2013-05-07 19:54:00
4:16 PM,64.4,60.8,88,29.95,10.0,East,8.1,-,0.01,Rain,Light Rain,80,2013-05-07 20:16:00
4:19 PM,64.4,60.8,88,29.95,10.0,ENE,9.2,-,0.01,Rain,Light Rain,70,2013-05-07 20:19:00
4:54 PM,64.0,60.1,87,29.94,10.0,East,6.9,-,0.01,,Overcast,80,2013-05-07 20:54:00
5:54 PM,64.9,60.1,84,29.96,10.0,ENE,8.1,-,N/A,,Overcast,70,2013-05-07 21:54:00
6:54 PM,64.0,59.0,84,29.95,10.0,East,11.5,-,N/A,,Overcast,80,2013-05-07 22:54:00
7:12 PM,62.6,59.0,88,29.96,10.0,SE,8.1,-,N/A,,Overcast,130,2013-05-07 23:12:00
7:14 PM,62.6,59.0,88,29.96,10.0,SE,8.1,-,N/A,,Overcast,130,2013-05-07 23:14:00
7:54 PM,62.1,57.9,86,29.98,10.0,ESE,8.1,-,N/A,,Overcast,110,2013-05-07 23:54:00
8:01 PM,62.6,57.2,82,29.97,10.0,ESE,9.2,-,N/A,,Mostly Cloudy,110,2013-05-08 00:01:00
8:22 PM,60.8,57.2,88,29.98,10.0,ESE,6.9,-,N/A,,Mostly Cloudy,110,2013-05-08 00:22:00
8:40 PM,60.8,57.2,88,29.98,10.0,East,6.9,-,N/A,,Overcast,100,2013-05-08 00:40:00
8:50 PM,60.8,55.4,82,29.99,10.0,East,9.2,-,N/A,,Overcast,100,2013-05-08 00:50:00
8:54 PM,61.0,55.9,83,30.00,10.0,East,9.2,-,N/A,,Overcast,100,2013-05-08 00:54:00
9:54 PM,60.1,55.9,86,30.01,10.0,East,5.8,-,0.01,,Partly Cloudy,100,2013-05-08 01:54:00
10:54 PM,59.0,55.9,90,30.00,10.0,East,3.5,-,N/A,,Mostly Cloudy,90,2013-05-08 02:54:00
11:54 PM,60.1,55.9,86,30.01,10.0,ESE,3.5,-,N/A,,Overcast,110,2013-05-08 03:54:00